Year,Month,Day,Hour,Minute,Value (Times are PST for temperature in C)
2014,04,25,00,00,8.60
2014,04,25,00,01,8.60
2014,04,25,00,02,8.60
2014,04,25,00,03,8.60
2014,04,25,00,04,8.60
2014,04,25,00,05,8.60
2014,04,25,00,06,8.60
2014,04,25,00,07,8.60
2014,04,25,00,08,8.60
2014,04,25,00,09,8.60
2014,04,25,00,10,8.60
2014,04,25,00,11,8.60
2014,04,25,00,12,8.60
2014,04,25,00,13,8.60
2014,04,25,00,14,8.60
2014,04,25,00,15,8.60
2014,04,25,00,16,8.60
2014,04,25,00,17,8.60
2014,04,25,00,18,8.60
2014,04,25,00,19,8.60
2014,04,25,00,20,8.60
2014,04,25,00,21,8.60
2014,04,25,00,22,8.60
2014,04,25,00,23,8.60
2014,04,25,00,24,8.60
2014,04,25,00,25,8.60
2014,04,25,00,26,8.60
2014,04,25,00,27,8.60
2014,04,25,00,28,8.60
2014,04,25,00,29,8.60
2014,04,25,00,30,8.60
2014,04,25,00,31,8.60
2014,04,25,00,32,8.60
2014,04,25,00,33,8.60
2014,04,25,00,34,8.60
2014,04,25,00,35,8.60
2014,04,25,00,36,8.60
2014,04,25,00,37,8.60
2014,04,25,00,38,8.60
2014,04,25,00,39,8.60
2014,04,25,00,40,8.60
2014,04,25,00,41,8.60
2014,04,25,00,42,8.60
2014,04,25,00,43,8.60
2014,04,25,00,44,8.60
2014,04,25,00,45,8.60
2014,04,25,00,46,8.60
2014,04,25,00,47,8.60
2014,04,25,00,48,8.60
2014,04,25,00,49,8.60
2014,04,25,00,50,8.60
2014,04,25,00,51,8.60
2014,04,25,00,52,8.60
2014,04,25,00,53,8.60
2014,04,25,00,54,8.60
2014,04,25,00,55,8.60
2014,04,25,00,56,8.60
2014,04,25,00,57,8.60
2014,04,25,00,58,8.60
2014,04,25,00,59,8.60
2014,04,25,01,00,8.70
2014,04,25,01,01,8.70
2014,04,25,01,02,8.70
2014,04,25,01,03,8.70
2014,04,25,01,04,8.70
2014,04,25,01,05,8.70
2014,04,25,01,06,8.70
2014,04,25,01,07,8.70
2014,04,25,01,08,8.70
2014,04,25,01,09,8.70
2014,04,25,01,10,8.70
2014,04,25,01,11,8.70
2014,04,25,01,12,8.70
2014,04,25,01,13,8.70
2014,04,25,01,14,8.70
2014,04,25,01,15,8.70
2014,04,25,01,16,8.70
2014,04,25,01,17,8.70
2014,04,25,01,18,8.70
2014,04,25,01,19,8.70
2014,04,25,01,20,8.70
2014,04,25,01,21,8.70
2014,04,25,01,22,8.70
2014,04,25,01,23,8.70
2014,04,25,01,24,8.70
2014,04,25,01,25,8.70
2014,04,25,01,26,8.70
2014,04,25,01,27,8.70
2014,04,25,01,28,8.70
2014,04,25,01,29,8.70
2014,04,25,01,30,8.70
2014,04,25,01,31,8.70
2014,04,25,01,32,8.70
2014,04,25,01,33,8.70
2014,04,25,01,34,8.70
2014,04,25,01,35,8.70
2014,04,25,01,36,8.70
2014,04,25,01,37,8.70
2014,04,25,01,38,8.70
2014,04,25,01,39,8.70
2014,04,25,01,40,8.70
2014,04,25,01,41,8.70
2014,04,25,01,42,8.70
2014,04,25,01,43,8.70
2014,04,25,01,44,8.70
2014,04,25,01,45,8.70
2014,04,25,01,46,8.70
2014,04,25,01,47,8.70
2014,04,25,01,48,8.70
2014,04,25,01,49,8.70
2014,04,25,01,50,8.70
2014,04,25,01,51,8.70
2014,04,25,01,52,8.70
2014,04,25,01,53,8.70
2014,04,25,01,54,8.70
2014,04,25,01,55,8.70
2014,04,25,01,56,8.70
2014,04,25,01,57,8.70
2014,04,25,01,58,8.70
2014,04,25,01,59,8.70
2014,04,25,02,00,7.10
2014,04,25,02,01,7.10
2014,04,25,02,02,7.10
2014,04,25,02,03,7.10
2014,04,25,02,04,7.10
2014,04,25,02,05,7.10
2014,04,25,02,06,7.10
2014,04,25,02,07,7.10
2014,04,25,02,08,7.10
2014,04,25,02,09,7.10
2014,04,25,02,10,7.10
2014,04,25,02,11,7.10
2014,04,25,02,12,7.10
2014,04,25,02,13,7.10
2014,04,25,02,14,7.10
2014,04,25,02,15,7.10
2014,04,25,02,16,7.10
2014,04,25,02,17,7.10
2014,04,25,02,18,7.10
2014,04,25,02,19,7.10
2014,04,25,02,20,7.10
2014,04,25,02,21,7.10
2014,04,25,02,22,7.10
2014,04,25,02,23,7.10
2014,04,25,02,24,7.10
2014,04,25,02,25,7.10
2014,04,25,02,26,7.10
2014,04,25,02,27,7.10
2014,04,25,02,28,7.10
2014,04,25,02,29,7.10
2014,04,25,02,30,7.10
2014,04,25,02,31,7.10
2014,04,25,02,32,7.10
2014,04,25,02,33,7.10
2014,04,25,02,34,7.10
2014,04,25,02,35,7.10
2014,04,25,02,36,7.10
2014,04,25,02,37,7.10
2014,04,25,02,38,7.10
2014,04,25,02,39,7.10
2014,04,25,02,40,7.10
2014,04,25,02,41,7.10
2014,04,25,02,42,7.10
2014,04,25,02,43,7.10
2014,04,25,02,44,7.10
2014,04,25,02,45,7.10
2014,04,25,02,46,7.10
2014,04,25,02,47,7.10
2014,04,25,02,48,7.10
2014,04,25,02,49,7.10
2014,04,25,02,50,7.10
2014,04,25,02,51,7.10
2014,04,25,02,52,7.10
2014,04,25,02,53,7.10
2014,04,25,02,54,7.10
2014,04,25,02,55,7.10
2014,04,25,02,56,7.10
2014,04,25,02,57,7.10
2014,04,25,02,58,7.10
2014,04,25,02,59,7.10
2014,04,25,03,00,6.10
2014,04,25,03,01,6.10
2014,04,25,03,02,6.10
2014,04,25,03,03,6.10
2014,04,25,03,04,6.10
2014,04,25,03,05,6.10
2014,04,25,03,06,6.10
2014,04,25,03,07,6.10
2014,04,25,03,08,6.10
2014,04,25,03,09,6.10
2014,04,25,03,10,6.10
2014,04,25,03,11,6.10
2014,04,25,03,12,6.10
2014,04,25,03,13,6.10
2014,04,25,03,14,6.10
2014,04,25,03,15,6.10
2014,04,25,03,16,6.10
2014,04,25,03,17,6.10
2014,04,25,03,18,6.10
2014,04,25,03,19,6.10
2014,04,25,03,20,6.10
2014,04,25,03,21,6.10
2014,04,25,03,22,6.10
2014,04,25,03,23,6.10
2014,04,25,03,24,6.10
2014,04,25,03,25,6.10
2014,04,25,03,26,6.10
2014,04,25,03,27,6.10
2014,04,25,03,28,6.10
2014,04,25,03,29,6.10
2014,04,25,03,30,6.10
2014,04,25,03,31,6.10
2014,04,25,03,32,6.10
2014,04,25,03,33,6.10
2014,04,25,03,34,6.10
2014,04,25,03,35,6.10
2014,04,25,03,36,6.10
2014,04,25,03,37,6.10
2014,04,25,03,38,6.10
2014,04,25,03,39,6.10
2014,04,25,03,40,6.10
2014,04,25,03,41,6.10
2014,04,25,03,42,6.10
2014,04,25,03,43,6.10
2014,04,25,03,44,6.10
2014,04,25,03,45,6.10
2014,04,25,03,46,6.10
2014,04,25,03,47,6.10
2014,04,25,03,48,6.10
2014,04,25,03,49,6.10
2014,04,25,03,50,6.10
2014,04,25,03,51,6.10
2014,04,25,03,52,6.10
2014,04,25,03,53,6.10
2014,04,25,03,54,6.10
2014,04,25,03,55,6.10
2014,04,25,03,56,6.10
2014,04,25,03,57,6.10
2014,04,25,03,58,6.10
2014,04,25,03,59,6.10
2014,04,25,04,00,5.50
2014,04,25,04,01,5.50
2014,04,25,04,02,5.50
2014,04,25,04,03,5.50
2014,04,25,04,04,5.50
2014,04,25,04,05,5.50
2014,04,25,04,06,5.50
2014,04,25,04,07,5.50
2014,04,25,04,08,5.50
2014,04,25,04,09,5.50
2014,04,25,04,10,5.50
2014,04,25,04,11,5.50
2014,04,25,04,12,5.50
2014,04,25,04,13,5.50
2014,04,25,04,14,5.50
2014,04,25,04,15,5.50
2014,04,25,04,16,5.50
2014,04,25,04,17,5.50
2014,04,25,04,18,5.50
2014,04,25,04,19,5.50
2014,04,25,04,20,5.50
2014,04,25,04,21,5.50
2014,04,25,04,22,5.50
2014,04,25,04,23,5.50
2014,04,25,04,24,5.50
2014,04,25,04,25,5.50
2014,04,25,04,26,5.50
2014,04,25,04,27,5.50
2014,04,25,04,28,5.50
2014,04,25,04,29,5.50
2014,04,25,04,30,5.50
2014,04,25,04,31,5.50
2014,04,25,04,32,5.50
2014,04,25,04,33,5.50
2014,04,25,04,34,5.50
2014,04,25,04,35,5.50
2014,04,25,04,36,5.50
2014,04,25,04,37,5.50
2014,04,25,04,38,5.50
2014,04,25,04,39,5.50
2014,04,25,04,40,5.50
2014,04,25,04,41,5.50
2014,04,25,04,42,5.50
2014,04,25,04,43,5.50
2014,04,25,04,44,5.50
2014,04,25,04,45,5.50
2014,04,25,04,46,5.50
2014,04,25,04,47,5.50
2014,04,25,04,48,5.50
2014,04,25,04,49,5.50
2014,04,25,04,50,5.50
2014,04,25,04,51,5.50
2014,04,25,04,52,5.50
2014,04,25,04,53,5.50
2014,04,25,04,54,5.50
2014,04,25,04,55,5.50
2014,04,25,04,56,5.50
2014,04,25,04,57,5.50
2014,04,25,04,58,5.50
2014,04,25,04,59,5.50
2014,04,25,05,00,5.20
2014,04,25,05,01,5.20
2014,04,25,05,02,5.20
2014,04,25,05,03,5.20
2014,04,25,05,04,5.20
2014,04,25,05,05,5.20
2014,04,25,05,06,5.20
2014,04,25,05,07,5.20
2014,04,25,05,08,5.20
2014,04,25,05,09,5.20
2014,04,25,05,10,5.20
2014,04,25,05,11,5.20
2014,04,25,05,12,5.20
2014,04,25,05,13,5.20
2014,04,25,05,14,5.20
2014,04,25,05,15,5.20
2014,04,25,05,16,5.20
2014,04,25,05,17,5.20
2014,04,25,05,18,5.20
2014,04,25,05,19,5.20
2014,04,25,05,20,5.20
2014,04,25,05,21,5.20
2014,04,25,05,22,5.20
2014,04,25,05,23,5.20
2014,04,25,05,24,5.20
2014,04,25,05,25,5.20
2014,04,25,05,26,5.20
2014,04,25,05,27,5.20
2014,04,25,05,28,5.20
2014,04,25,05,29,5.20
2014,04,25,05,30,5.20
2014,04,25,05,31,5.20
2014,04,25,05,32,5.20
2014,04,25,05,33,5.20
2014,04,25,05,34,5.20
2014,04,25,05,35,5.20
2014,04,25,05,36,5.20
2014,04,25,05,37,5.20
2014,04,25,05,38,5.20
2014,04,25,05,39,5.20
2014,04,25,05,40,5.20
2014,04,25,05,41,5.20
2014,04,25,05,42,5.20
2014,04,25,05,43,5.20
2014,04,25,05,44,5.20
2014,04,25,05,45,5.20
2014,04,25,05,46,5.20
2014,04,25,05,47,5.20
2014,04,25,05,48,5.20
2014,04,25,05,49,5.20
2014,04,25,05,50,5.20
2014,04,25,05,51,5.20
2014,04,25,05,52,5.20
2014,04,25,05,53,5.20
2014,04,25,05,54,5.20
2014,04,25,05,55,5.20
2014,04,25,05,56,5.20
2014,04,25,05,57,5.20
2014,04,25,05,58,5.20
2014,04,25,05,59,5.20
2014,04,25,06,00,5.10
2014,04,25,06,01,5.10
2014,04,25,06,02,5.10
2014,04,25,06,03,5.10
2014,04,25,06,04,5.10
2014,04,25,06,05,5.10
2014,04,25,06,06,5.10
2014,04,25,06,07,5.10
2014,04,25,06,08,5.10
2014,04,25,06,09,5.10
2014,04,25,06,10,5.10
2014,04,25,06,11,5.10
2014,04,25,06,12,5.10
2014,04,25,06,13,5.10
2014,04,25,06,14,5.10
2014,04,25,06,15,5.10
2014,04,25,06,16,5.10
2014,04,25,06,17,5.10
2014,04,25,06,18,5.10
2014,04,25,06,19,5.10
2014,04,25,06,20,5.10
2014,04,25,06,21,5.10
2014,04,25,06,22,5.10
2014,04,25,06,23,5.10
2014,04,25,06,24,5.10
2014,04,25,06,25,5.10
2014,04,25,06,26,5.10
2014,04,25,06,27,5.10
2014,04,25,06,28,5.10
2014,04,25,06,29,5.10
2014,04,25,06,30,5.10
2014,04,25,06,31,5.10
2014,04,25,06,32,5.10
2014,04,25,06,33,5.10
2014,04,25,06,34,5.10
2014,04,25,06,35,5.10
2014,04,25,06,36,5.10
2014,04,25,06,37,5.10
2014,04,25,06,38,5.10
2014,04,25,06,39,5.10
2014,04,25,06,40,5.10
2014,04,25,06,41,5.10
2014,04,25,06,42,5.10
2014,04,25,06,43,5.10
2014,04,25,06,44,5.10
2014,04,25,06,45,5.10
2014,04,25,06,46,5.10
2014,04,25,06,47,5.10
2014,04,25,06,48,5.10
2014,04,25,06,49,5.10
2014,04,25,06,50,5.10
2014,04,25,06,51,5.10
2014,04,25,06,52,5.10
2014,04,25,06,53,5.10
2014,04,25,06,54,5.10
2014,04,25,06,55,5.10
2014,04,25,06,56,5.10
2014,04,25,06,57,5.10
2014,04,25,06,58,5.10
2014,04,25,06,59,5.10
2014,04,25,07,00,4.90
2014,04,25,07,01,4.90
2014,04,25,07,02,4.90
2014,04,25,07,03,4.90
2014,04,25,07,04,4.90
2014,04,25,07,05,4.90
2014,04,25,07,06,4.90
2014,04,25,07,07,4.90
2014,04,25,07,08,4.90
2014,04,25,07,09,4.90
2014,04,25,07,10,4.90
2014,04,25,07,11,4.90
2014,04,25,07,12,4.90
2014,04,25,07,13,4.90
2014,04,25,07,14,4.90
2014,04,25,07,15,4.90
2014,04,25,07,16,4.90
2014,04,25,07,17,4.90
2014,04,25,07,18,4.90
2014,04,25,07,19,4.90
2014,04,25,07,20,4.90
2014,04,25,07,21,4.90
2014,04,25,07,22,4.90
2014,04,25,07,23,4.90
2014,04,25,07,24,4.90
2014,04,25,07,25,4.90
2014,04,25,07,26,4.90
2014,04,25,07,27,4.90
2014,04,25,07,28,4.90
2014,04,25,07,29,4.90
2014,04,25,07,30,4.90
2014,04,25,07,31,4.90
2014,04,25,07,32,4.90
2014,04,25,07,33,4.90
2014,04,25,07,34,4.90
2014,04,25,07,35,4.90
2014,04,25,07,36,4.90
2014,04,25,07,37,4.90
2014,04,25,07,38,4.90
2014,04,25,07,39,4.90
2014,04,25,07,40,4.90
2014,04,25,07,41,4.90
2014,04,25,07,42,4.90
2014,04,25,07,43,4.90
2014,04,25,07,44,4.90
2014,04,25,07,45,4.90
2014,04,25,07,46,4.90
2014,04,25,07,47,4.90
2014,04,25,07,48,4.90
2014,04,25,07,49,4.90
2014,04,25,07,50,4.90
2014,04,25,07,51,4.90
2014,04,25,07,52,4.90
2014,04,25,07,53,4.90
2014,04,25,07,54,4.90
2014,04,25,07,55,4.90
2014,04,25,07,56,4.90
2014,04,25,07,57,4.90
2014,04,25,07,58,4.90
2014,04,25,07,59,4.90
2014,04,25,08,00,5.50
2014,04,25,08,01,5.50
2014,04,25,08,02,5.50
2014,04,25,08,03,5.50
2014,04,25,08,04,5.50
2014,04,25,08,05,5.50
2014,04,25,08,06,5.50
2014,04,25,08,07,5.50
2014,04,25,08,08,5.50
2014,04,25,08,09,5.50
2014,04,25,08,10,5.50
2014,04,25,08,11,5.50
2014,04,25,08,12,5.50
2014,04,25,08,13,5.50
2014,04,25,08,14,5.50
2014,04,25,08,15,5.50
2014,04,25,08,16,5.50
2014,04,25,08,17,5.50
2014,04,25,08,18,5.50
2014,04,25,08,19,5.50
2014,04,25,08,20,5.50
2014,04,25,08,21,5.50
2014,04,25,08,22,5.50
2014,04,25,08,23,5.50
2014,04,25,08,24,5.50
2014,04,25,08,25,5.50
2014,04,25,08,26,5.50
2014,04,25,08,27,5.50
2014,04,25,08,28,5.50
2014,04,25,08,29,5.50
2014,04,25,08,30,5.50
2014,04,25,08,31,5.50
2014,04,25,08,32,5.50
2014,04,25,08,33,5.50
2014,04,25,08,34,5.50
2014,04,25,08,35,5.50
2014,04,25,08,36,5.50
2014,04,25,08,37,5.50
2014,04,25,08,38,5.50
2014,04,25,08,39,5.50
2014,04,25,08,40,5.50
2014,04,25,08,41,5.50
2014,04,25,08,42,5.50
2014,04,25,08,43,5.50
2014,04,25,08,44,5.50
2014,04,25,08,45,5.50
2014,04,25,08,46,5.50
2014,04,25,08,47,5.50
2014,04,25,08,48,5.50
2014,04,25,08,49,5.50
2014,04,25,08,50,5.50
2014,04,25,08,51,5.50
2014,04,25,08,52,5.50
2014,04,25,08,53,5.50
2014,04,25,08,54,5.50
2014,04,25,08,55,5.50
2014,04,25,08,56,5.50
2014,04,25,08,57,5.50
2014,04,25,08,58,5.50
2014,04,25,08,59,5.50
2014,04,25,09,00,8.00
2014,04,25,09,01,8.00
2014,04,25,09,02,8.00
2014,04,25,09,03,8.00
2014,04,25,09,04,8.00
2014,04,25,09,05,8.00
2014,04,25,09,06,8.00
2014,04,25,09,07,8.00
2014,04,25,09,08,8.00
2014,04,25,09,09,8.00
2014,04,25,09,10,8.00
2014,04,25,09,11,8.00
2014,04,25,09,12,8.00
2014,04,25,09,13,8.00
2014,04,25,09,14,8.00
2014,04,25,09,15,8.00
2014,04,25,09,16,8.00
2014,04,25,09,17,8.00
2014,04,25,09,18,8.00
2014,04,25,09,19,8.00
2014,04,25,09,20,8.00
2014,04,25,09,21,8.00
2014,04,25,09,22,8.00
2014,04,25,09,23,8.00
2014,04,25,09,24,8.00
2014,04,25,09,25,8.00
2014,04,25,09,26,8.00
2014,04,25,09,27,8.00
2014,04,25,09,28,8.00
2014,04,25,09,29,8.00
2014,04,25,09,30,8.00
2014,04,25,09,31,8.00
2014,04,25,09,32,8.00
2014,04,25,09,33,8.00
2014,04,25,09,34,8.00
2014,04,25,09,35,8.00
2014,04,25,09,36,8.00
2014,04,25,09,37,8.00
2014,04,25,09,38,8.00
2014,04,25,09,39,8.00
2014,04,25,09,40,8.00
2014,04,25,09,41,8.00
2014,04,25,09,42,8.00
2014,04,25,09,43,8.00
2014,04,25,09,44,8.00
2014,04,25,09,45,8.00
2014,04,25,09,46,8.00
2014,04,25,09,47,8.00
2014,04,25,09,48,8.00
2014,04,25,09,49,8.00
2014,04,25,09,50,8.00
2014,04,25,09,51,8.00
2014,04,25,09,52,8.00
2014,04,25,09,53,8.00
2014,04,25,09,54,8.00
2014,04,25,09,55,8.00
2014,04,25,09,56,8.00
2014,04,25,09,57,8.00
2014,04,25,09,58,8.00
2014,04,25,09,59,8.00
2014,04,25,10,00,8.70
2014,04,25,10,01,8.70
2014,04,25,10,02,8.70
2014,04,25,10,03,8.70
2014,04,25,10,04,8.70
2014,04,25,10,05,8.70
2014,04,25,10,06,8.70
2014,04,25,10,07,8.70
2014,04,25,10,08,8.70
2014,04,25,10,09,8.70
2014,04,25,10,10,8.70
2014,04,25,10,11,8.70
2014,04,25,10,12,8.70
2014,04,25,10,13,8.70
2014,04,25,10,14,8.70
2014,04,25,10,15,8.70
2014,04,25,10,16,8.70
2014,04,25,10,17,8.70
2014,04,25,10,18,8.70
2014,04,25,10,19,8.70
2014,04,25,10,20,8.70
2014,04,25,10,21,8.70
2014,04,25,10,22,8.70
2014,04,25,10,23,8.70
2014,04,25,10,24,8.70
2014,04,25,10,25,8.70
2014,04,25,10,26,8.70
2014,04,25,10,27,8.70
2014,04,25,10,28,8.70
2014,04,25,10,29,8.70
2014,04,25,10,30,8.70
2014,04,25,10,31,8.70
2014,04,25,10,32,8.70
2014,04,25,10,33,8.70
2014,04,25,10,34,8.70
2014,04,25,10,35,8.70
2014,04,25,10,36,8.70
2014,04,25,10,37,8.70
2014,04,25,10,38,8.70
2014,04,25,10,39,8.70
2014,04,25,10,40,8.70
2014,04,25,10,41,8.70
2014,04,25,10,42,8.70
2014,04,25,10,43,8.70
2014,04,25,10,44,8.70
2014,04,25,10,45,8.70
2014,04,25,10,46,8.70
2014,04,25,10,47,8.70
2014,04,25,10,48,8.70
2014,04,25,10,49,8.70
2014,04,25,10,50,8.70
2014,04,25,10,51,8.70
2014,04,25,10,52,8.70
2014,04,25,10,53,8.70
2014,04,25,10,54,8.70
2014,04,25,10,55,8.70
2014,04,25,10,56,8.70
2014,04,25,10,57,8.70
2014,04,25,10,58,8.70
2014,04,25,10,59,8.70
2014,04,25,11,00,8.70
2014,04,25,11,01,8.70
2014,04,25,11,02,8.70
2014,04,25,11,03,8.70
2014,04,25,11,04,8.70
2014,04,25,11,05,8.70
2014,04,25,11,06,8.70
2014,04,25,11,07,8.70
2014,04,25,11,08,8.70
2014,04,25,11,09,8.70
2014,04,25,11,10,8.70
2014,04,25,11,11,8.70
2014,04,25,11,12,8.70
2014,04,25,11,13,8.70
2014,04,25,11,14,8.70
2014,04,25,11,15,8.70
2014,04,25,11,16,8.70
2014,04,25,11,17,8.70
2014,04,25,11,18,8.70
2014,04,25,11,19,8.70
2014,04,25,11,20,8.70
2014,04,25,11,21,8.70
2014,04,25,11,22,8.70
2014,04,25,11,23,8.70
2014,04,25,11,24,8.70
2014,04,25,11,25,8.70
2014,04,25,11,26,8.70
2014,04,25,11,27,8.70
2014,04,25,11,28,8.70
2014,04,25,11,29,8.70
2014,04,25,11,30,8.70
2014,04,25,11,31,8.70
2014,04,25,11,32,8.70
2014,04,25,11,33,8.70
2014,04,25,11,34,8.70
2014,04,25,11,35,8.70
2014,04,25,11,36,8.70
2014,04,25,11,37,8.70
2014,04,25,11,38,8.70
2014,04,25,11,39,8.70
2014,04,25,11,40,8.70
2014,04,25,11,41,8.70
2014,04,25,11,42,8.70
2014,04,25,11,43,8.70
2014,04,25,11,44,8.70
2014,04,25,11,45,8.70
2014,04,25,11,46,8.70
2014,04,25,11,47,8.70
2014,04,25,11,48,8.70
2014,04,25,11,49,8.70
2014,04,25,11,50,8.70
2014,04,25,11,51,8.70
2014,04,25,11,52,8.70
2014,04,25,11,53,8.70
2014,04,25,11,54,8.70
2014,04,25,11,55,8.70
2014,04,25,11,56,8.70
2014,04,25,11,57,8.70
2014,04,25,11,58,8.70
2014,04,25,11,59,8.70
2014,04,25,12,00,10.20
2014,04,25,12,01,10.20
2014,04,25,12,02,10.20
2014,04,25,12,03,10.20
2014,04,25,12,04,10.20
2014,04,25,12,05,10.20
2014,04,25,12,06,10.20
2014,04,25,12,07,10.20
2014,04,25,12,08,10.20
2014,04,25,12,09,10.20
2014,04,25,12,10,10.20
2014,04,25,12,11,10.20
2014,04,25,12,12,10.20
2014,04,25,12,13,10.20
2014,04,25,12,14,10.20
2014,04,25,12,15,10.20
2014,04,25,12,16,10.20
2014,04,25,12,17,10.20
2014,04,25,12,18,10.20
2014,04,25,12,19,10.20
2014,04,25,12,20,10.20
2014,04,25,12,21,10.20
2014,04,25,12,22,10.20
2014,04,25,12,23,10.20
2014,04,25,12,24,10.20
2014,04,25,12,25,10.20
2014,04,25,12,26,10.20
2014,04,25,12,27,10.20
2014,04,25,12,28,10.20
2014,04,25,12,29,10.20
2014,04,25,12,30,10.20
2014,04,25,12,31,10.20
2014,04,25,12,32,10.20
2014,04,25,12,33,10.20
2014,04,25,12,34,10.20
2014,04,25,12,35,10.20
2014,04,25,12,36,10.20
2014,04,25,12,37,10.20
2014,04,25,12,38,10.20
2014,04,25,12,39,10.20
2014,04,25,12,40,10.20
2014,04,25,12,41,10.20
2014,04,25,12,42,10.20
2014,04,25,12,43,10.20
2014,04,25,12,44,10.20
2014,04,25,12,45,10.20
2014,04,25,12,46,10.20
2014,04,25,12,47,10.20
2014,04,25,12,48,10.20
2014,04,25,12,49,10.20
2014,04,25,12,50,10.20
2014,04,25,12,51,10.20
2014,04,25,12,52,10.20
2014,04,25,12,53,10.20
2014,04,25,12,54,10.20
2014,04,25,12,55,10.20
2014,04,25,12,56,10.20
2014,04,25,12,57,10.20
2014,04,25,12,58,10.20
2014,04,25,12,59,10.20
2014,04,25,13,00,9.70
2014,04,25,13,01,9.70
2014,04,25,13,02,9.70
2014,04,25,13,03,9.70
2014,04,25,13,04,9.70
2014,04,25,13,05,9.70
2014,04,25,13,06,9.70
2014,04,25,13,07,9.70
2014,04,25,13,08,9.70
2014,04,25,13,09,9.70
2014,04,25,13,10,9.70
2014,04,25,13,11,9.70
2014,04,25,13,12,9.70
2014,04,25,13,13,9.70
2014,04,25,13,14,9.70
2014,04,25,13,15,9.70
2014,04,25,13,16,9.70
2014,04,25,13,17,9.70
2014,04,25,13,18,9.70
2014,04,25,13,19,9.70
2014,04,25,13,20,9.70
2014,04,25,13,21,9.70
2014,04,25,13,22,9.70
2014,04,25,13,23,9.70
2014,04,25,13,24,9.70
2014,04,25,13,25,9.70
2014,04,25,13,26,9.70
2014,04,25,13,27,9.70
2014,04,25,13,28,9.70
2014,04,25,13,29,9.70
2014,04,25,13,30,9.70
2014,04,25,13,31,9.70
2014,04,25,13,32,9.70
2014,04,25,13,33,9.70
2014,04,25,13,34,9.70
2014,04,25,13,35,9.70
2014,04,25,13,36,9.70
2014,04,25,13,37,9.70
2014,04,25,13,38,9.70
2014,04,25,13,39,9.70
2014,04,25,13,40,9.70
2014,04,25,13,41,9.70
2014,04,25,13,42,9.70
2014,04,25,13,43,9.70
2014,04,25,13,44,9.70
2014,04,25,13,45,9.70
2014,04,25,13,46,9.70
2014,04,25,13,47,9.70
2014,04,25,13,48,9.70
2014,04,25,13,49,9.70
2014,04,25,13,50,9.70
2014,04,25,13,51,9.70
2014,04,25,13,52,9.70
2014,04,25,13,53,9.70
2014,04,25,13,54,9.70
2014,04,25,13,55,9.70
2014,04,25,13,56,9.70
2014,04,25,13,57,9.70
2014,04,25,13,58,9.70
2014,04,25,13,59,9.70
2014,04,25,14,00,8.80
2014,04,25,14,01,8.80
2014,04,25,14,02,8.80
2014,04,25,14,03,8.80
2014,04,25,14,04,8.80
2014,04,25,14,05,8.80
2014,04,25,14,06,8.80
2014,04,25,14,07,8.80
2014,04,25,14,08,8.80
2014,04,25,14,09,8.80
2014,04,25,14,10,8.80
2014,04,25,14,11,8.80
2014,04,25,14,12,8.80
2014,04,25,14,13,8.80
2014,04,25,14,14,8.80
2014,04,25,14,15,8.80
2014,04,25,14,16,8.80
2014,04,25,14,17,8.80
2014,04,25,14,18,8.80
2014,04,25,14,19,8.80
2014,04,25,14,20,8.80
2014,04,25,14,21,8.80
2014,04,25,14,22,8.80
2014,04,25,14,23,8.80
2014,04,25,14,24,8.80
2014,04,25,14,25,8.80
2014,04,25,14,26,8.80
2014,04,25,14,27,8.80
2014,04,25,14,28,8.80
2014,04,25,14,29,8.80
2014,04,25,14,30,8.80
2014,04,25,14,31,8.80
2014,04,25,14,32,8.80
2014,04,25,14,33,8.80
2014,04,25,14,34,8.80
2014,04,25,14,35,8.80
2014,04,25,14,36,8.80
2014,04,25,14,37,8.80
2014,04,25,14,38,8.80
2014,04,25,14,39,8.80
2014,04,25,14,40,8.80
2014,04,25,14,41,8.80
2014,04,25,14,42,8.80
2014,04,25,14,43,8.80
2014,04,25,14,44,8.80
2014,04,25,14,45,8.80
2014,04,25,14,46,8.80
2014,04,25,14,47,8.80
2014,04,25,14,48,8.80
2014,04,25,14,49,8.80
2014,04,25,14,50,8.80
2014,04,25,14,51,8.80
2014,04,25,14,52,8.80
2014,04,25,14,53,8.80
2014,04,25,14,54,8.80
2014,04,25,14,55,8.80
2014,04,25,14,56,8.80
2014,04,25,14,57,8.80
2014,04,25,14,58,8.80
2014,04,25,14,59,8.80
2014,04,25,15,00,10.30
2014,04,25,15,01,10.30
2014,04,25,15,02,10.30
2014,04,25,15,03,10.30
2014,04,25,15,04,10.30
2014,04,25,15,05,10.30
2014,04,25,15,06,10.30
2014,04,25,15,07,10.30
2014,04,25,15,08,10.30
2014,04,25,15,09,10.30
2014,04,25,15,10,10.30
2014,04,25,15,11,10.30
2014,04,25,15,12,10.30
2014,04,25,15,13,10.30
2014,04,25,15,14,10.30
2014,04,25,15,15,10.30
2014,04,25,15,16,10.30
2014,04,25,15,17,10.30
2014,04,25,15,18,10.30
2014,04,25,15,19,10.30
2014,04,25,15,20,10.30
2014,04,25,15,21,10.30
2014,04,25,15,22,10.30
2014,04,25,15,23,10.30
2014,04,25,15,24,10.30
2014,04,25,15,25,10.30
2014,04,25,15,26,10.30
2014,04,25,15,27,10.30
2014,04,25,15,28,10.30
2014,04,25,15,29,10.30
2014,04,25,15,30,10.30
2014,04,25,15,31,10.30
2014,04,25,15,32,10.30
2014,04,25,15,33,10.30
2014,04,25,15,34,10.30
2014,04,25,15,35,10.30
2014,04,25,15,36,10.30
2014,04,25,15,37,10.30
2014,04,25,15,38,10.30
2014,04,25,15,39,10.30
2014,04,25,15,40,10.30
2014,04,25,15,41,10.30
2014,04,25,15,42,10.30
2014,04,25,15,43,10.30
2014,04,25,15,44,10.30
2014,04,25,15,45,10.30
2014,04,25,15,46,10.30
2014,04,25,15,47,10.30
2014,04,25,15,48,10.30
2014,04,25,15,49,10.30
2014,04,25,15,50,10.30
2014,04,25,15,51,10.30
2014,04,25,15,52,10.30
2014,04,25,15,53,10.30
2014,04,25,15,54,10.30
2014,04,25,15,55,10.30
2014,04,25,15,56,10.30
2014,04,25,15,57,10.30
2014,04,25,15,58,10.30
2014,04,25,15,59,10.30
2014,04,25,16,00,11.30
2014,04,25,16,01,11.30
2014,04,25,16,02,11.30
2014,04,25,16,03,11.30
2014,04,25,16,04,11.30
2014,04,25,16,05,11.30
2014,04,25,16,06,11.30
2014,04,25,16,07,11.30
2014,04,25,16,08,11.30
2014,04,25,16,09,11.30
2014,04,25,16,10,11.30
2014,04,25,16,11,11.30
2014,04,25,16,12,11.30
2014,04,25,16,13,11.30
2014,04,25,16,14,11.30
2014,04,25,16,15,11.30
2014,04,25,16,16,11.30
2014,04,25,16,17,11.30
2014,04,25,16,18,11.30
2014,04,25,16,19,11.30
2014,04,25,16,20,11.30
2014,04,25,16,21,11.30
2014,04,25,16,22,11.30
2014,04,25,16,23,11.30
2014,04,25,16,24,11.30
2014,04,25,16,25,11.30
2014,04,25,16,26,11.30
2014,04,25,16,27,11.30
2014,04,25,16,28,11.30
2014,04,25,16,29,11.30
2014,04,25,16,30,11.30
2014,04,25,16,31,11.30
2014,04,25,16,32,11.30
2014,04,25,16,33,11.30
2014,04,25,16,34,11.30
2014,04,25,16,35,11.30
2014,04,25,16,36,11.30
2014,04,25,16,37,11.30
2014,04,25,16,38,11.30
2014,04,25,16,39,11.30
2014,04,25,16,40,11.30
2014,04,25,16,41,11.30
2014,04,25,16,42,11.30
2014,04,25,16,43,11.30
2014,04,25,16,44,11.30
2014,04,25,16,45,11.30
2014,04,25,16,46,11.30
2014,04,25,16,47,11.30
2014,04,25,16,48,11.30
2014,04,25,16,49,11.30
2014,04,25,16,50,11.30
2014,04,25,16,51,11.30
2014,04,25,16,52,11.30
2014,04,25,16,53,11.30
2014,04,25,16,54,11.30
2014,04,25,16,55,11.30
2014,04,25,16,56,11.30
2014,04,25,16,57,11.30
2014,04,25,16,58,11.30
2014,04,25,16,59,11.30
2014,04,25,17,00,12.90
2014,04,25,17,01,12.90
2014,04,25,17,02,12.90
2014,04,25,17,03,12.90
2014,04,25,17,04,12.90
2014,04,25,17,05,12.90
2014,04,25,17,06,12.90
2014,04,25,17,07,12.90
2014,04,25,17,08,12.90
2014,04,25,17,09,12.90
2014,04,25,17,10,12.90
2014,04,25,17,11,12.90
2014,04,25,17,12,12.90
2014,04,25,17,13,12.90
2014,04,25,17,14,12.90
2014,04,25,17,15,12.90
2014,04,25,17,16,12.90
2014,04,25,17,17,12.90
2014,04,25,17,18,12.90
2014,04,25,17,19,12.90
2014,04,25,17,20,12.90
2014,04,25,17,21,12.90
2014,04,25,17,22,12.90
2014,04,25,17,23,12.90
2014,04,25,17,24,12.90
2014,04,25,17,25,12.90
2014,04,25,17,26,12.90
2014,04,25,17,27,12.90
2014,04,25,17,28,12.90
2014,04,25,17,29,12.90
2014,04,25,17,30,12.90
2014,04,25,17,31,12.90
2014,04,25,17,32,12.90
2014,04,25,17,33,12.90
2014,04,25,17,34,12.90
2014,04,25,17,35,12.90
2014,04,25,17,36,12.90
2014,04,25,17,37,12.90
2014,04,25,17,38,12.90
2014,04,25,17,39,12.90
2014,04,25,17,40,12.90
2014,04,25,17,41,12.90
2014,04,25,17,42,12.90
2014,04,25,17,43,12.90
2014,04,25,17,44,12.90
2014,04,25,17,45,12.90
2014,04,25,17,46,12.90
2014,04,25,17,47,12.90
2014,04,25,17,48,12.90
2014,04,25,17,49,12.90
2014,04,25,17,50,12.90
2014,04,25,17,51,12.90
2014,04,25,17,52,12.90
2014,04,25,17,53,12.90
2014,04,25,17,54,12.90
2014,04,25,17,55,12.90